TimePST,TemperatureF,Dew PointF,Humidity,Sea Level PressureIn,VisibilityMPH,Wind Direction,Wind SpeedMPH,Gust SpeedMPH,PrecipitationIn,Events,Conditions,WindDirDegrees,DateUTC
12:53 AM,46.0,43.0,89,30.21,10.0,Calm,Calm,-,N/A,,Overcast,0,2013-01-08 08:53:00
1:53 AM,46.0,42.1,86,30.21,10.0,Calm,Calm,-,N/A,,Overcast,0,2013-01-08 09:53:00
2:53 AM,48.0,42.1,80,30.19,10.0,Calm,Calm,-,N/A,,Overcast,0,2013-01-08 10:53:00
3:53 AM,46.0,43.0,89,30.17,10.0,Calm,Calm,-,0.00,,Overcast,0,2013-01-08 11:53:00
4:39 AM,44.6,42.8,93,30.15,3.0,ESE,5.8,-,0.02,Rain,Light Rain,110,2013-01-08 12:39:00
4:50 AM,44.6,44.6,100,30.14,3.0,East,5.8,-,0.02,Rain,Light Rain,100,2013-01-08 12:50:00
4:53 AM,45.0,44.1,97,30.14,3.0,ESE,6.9,-,0.03,Rain,Light Rain,110,2013-01-08 12:53:00
5:45 AM,44.6,44.6,100,30.11,3.0,ESE,9.2,-,0.01,Rain,Light Rain,110,2013-01-08 13:45:00
5:53 AM,45.0,44.1,97,30.11,3.0,East,10.4,-,0.02,Rain,Light Rain,100,2013-01-08 13:53:00
5:56 AM,44.6,42.8,93,30.10,2.5,ESE,9.2,-,0.00,Rain,Light Rain,110,2013-01-08 13:56:00
6:03 AM,44.6,44.6,100,30.10,3.0,ESE,10.4,-,0.00,Rain,Light Rain,120,2013-01-08 14:03:00
6:12 AM,44.6,44.6,100,30.10,4.0,East,9.2,-,0.01,Rain,Light Rain,100,2013-01-08 14:12:00
6:32 AM,44.6,44.6,100,30.09,4.0,ESE,8.1,-,0.01,Rain,Light Rain,110,2013-01-08 14:32:00
6:53 AM,45.0,44.1,97,30.10,4.0,ESE,5.8,-,0.02,Rain,Light Rain,120,2013-01-08 14:53:00
7:00 AM,44.6,44.6,100,30.09,5.0,ESE,5.8,-,0.00,Rain,Light Rain,110,2013-01-08 15:00:00
7:53 AM,48.9,46.9,93,30.09,9.0,SSE,4.6,-,0.01,,Overcast,160,2013-01-08 15:53:00
8:49 AM,50.0,46.4,87,30.10,5.0,South,10.4,17.3,0.01,Rain,Light Rain,180,2013-01-08 16:49:00
8:53 AM,50.0,46.9,89,30.11,7.0,South,8.1,17.3,0.01,Rain,Light Rain,190,2013-01-08 16:53:00
9:53 AM,51.1,46.0,83,30.11,10.0,South,11.5,20.7,0.01,,Overcast,190,2013-01-08 17:53:00
10:44 AM,51.8,46.4,82,30.11,10.0,South,5.8,16.1,0.00,Rain,Light Rain,180,2013-01-08 18:44:00
10:53 AM,52.0,46.9,83,30.11,10.0,South,6.9,-,0.00,Rain,Light Rain,190,2013-01-08 18:53:00
11:53 AM,52.0,46.9,83,30.09,10.0,SSE,5.8,-,0.00,Rain,Light Rain,160,2013-01-08 19:53:00
12:53 PM,53.1,48.0,83,30.07,7.0,South,6.9,17.3,0.01,Rain,Light Rain,190,2013-01-08 20:53:00
1:53 PM,54.0,46.9,77,30.06,10.0,South,8.1,16.1,0.00,,Overcast,180,2013-01-08 21:53:00
2:53 PM,54.0,46.9,77,30.04,10.0,SSE,8.1,-,N/A,,Overcast,160,2013-01-08 22:53:00
3:53 PM,54.0,46.0,75,30.03,10.0,South,8.1,-,N/A,,Overcast,170,2013-01-08 23:53:00
4:53 PM,55.0,46.0,72,30.02,10.0,South,11.5,16.1,N/A,,Overcast,170,2013-01-09 00:53:00
5:53 PM,54.0,46.9,77,30.01,10.0,South,8.1,-,N/A,,Overcast,190,2013-01-09 01:53:00
6:53 PM,54.0,46.0,75,29.99,10.0,Variable,5.8,-,N/A,,Overcast,0,2013-01-09 02:53:00
7:05 PM,53.6,46.4,77,29.98,10.0,South,5.8,-,N/A,,Overcast,170,2013-01-09 03:05:00
7:53 PM,54.0,46.0,75,29.97,10.0,SE,6.9,-,N/A,,Overcast,140,2013-01-09 03:53:00
9:53 PM,52.0,45.0,77,29.95,10.0,SE,9.2,-,N/A,,Overcast,130,2013-01-09 05:53:00
10:53 PM,52.0,44.1,74,29.93,10.0,SE,6.9,-,N/A,,Clear,130,2013-01-09 06:53:00
11:53 PM,52.0,44.1,74,29.91,10.0,SSE,6.9,-,N/A,,Clear,160,2013-01-09 07:53:00